IVALO current weather conditions

sailwx.info

Wind from 200 at 7 knots

Air temperature 13.0° C
Dewpoint 9.0° C

Last reported at 2014-Sep-02 20:50 UTC.
Time now 2014-Sep-02 21:42 UTC

Location: N 68°37' E 027°25'.
View on Google Maps.

See reports from other nearby stations

  
Tides and Currents Weather Stations Pressure Air Temp Water Temp Dewpoint Dewpoint Depression Visibility Wind Speed Wind Dir Waves Ship Positions
date/time (UTC)wind fromknots sea level pressurealtimeterstation pressurevisibilityair tempwater tempwave heightnotes
2014-Sep-02 20:50 200 7 13.0
2014-Sep-02 20:20 210 8 14.0
2014-Sep-02 19:50 210 8 13.0
2014-Sep-02 19:20 210 3 12.0
2014-Sep-02 18:50 230 4 12.0
2014-Sep-02 18:20 250 1 12.0
2014-Sep-02 17:50 220 4 12.0
2014-Sep-02 17:20 210 5 13.0
2014-Sep-02 16:50 190 7 14.0
2014-Sep-02 16:20 190 8 14.0
2014-Sep-02 15:50 200 7 14.0
2014-Sep-02 15:20 180 6 15.0
2014-Sep-02 14:50 170 6 15.0
2014-Sep-02 14:20 180 7 16.0
2014-Sep-02 13:50 200 8 17.0
2014-Sep-02 13:20 180 6 17.0
2014-Sep-02 12:50 200 8 18.0
2014-Sep-02 12:20 200 8 17.0
2014-Sep-02 11:50 210 10 16.0
2014-Sep-02 11:20 220 9 17.0
2014-Sep-02 10:50 240 7 17.0
2014-Sep-02 10:20 250 5 16.0
2014-Sep-02 09:50 15.0
2014-Sep-02 09:20 220 6 14.0
2014-Sep-02 08:50 210 6 13.0
2014-Sep-02 08:20 210 5 12.0
2014-Sep-02 07:50 200 5 11.0
2014-Sep-02 07:20 220 7 11.0
2014-Sep-02 06:50 210 6 11.0
2014-Sep-02 06:20 210 6 10.0
2014-Sep-02 05:50 210 8 9.0
2014-Sep-02 05:20 220 6 9.0
2014-Sep-02 04:50 200 5 8.0
2014-Sep-02 04:20 220 6 8.0
2014-Sep-02 03:50 190 5 8.0
2014-Sep-02 03:20 230 4 6.0
2014-Sep-02 02:50 190 6 8.0
2014-Sep-02 02:20 250 4 6.0
2014-Sep-02 01:50 220 4 7.0
2014-Sep-02 01:20 230 4 7.0
2014-Sep-02 00:50 230 4 8.0
2014-Sep-02 00:20 220 3 9.0
2014-Sep-01 23:50 230 3 9.0
2014-Sep-01 23:20 220 4 5.410.0
2014-Sep-01 22:50 230 4 10.0
2014-Sep-01 22:20 220 3 10.0
2014-Sep-01 21:50 250 3 10.0
2014-Sep-01 21:20 10.0
2014-Sep-01 20:50 200 4 11.0
2014-Sep-01 20:20 040 1 5.410.0
2014-Sep-01 19:50 200 2 10.0
2014-Sep-01 19:20 210 4 10.0
2014-Sep-01 18:50 200 2 11.0
2014-Sep-01 18:20 240 4 11.0
2014-Sep-01 17:50 250 4 12.0
2014-Sep-01 17:20 250 3 14.0
2014-Sep-01 16:50 210 4 15.0
2014-Sep-01 16:20 210 6 16.0
2014-Sep-01 15:50 220 8 16.0
2014-Sep-01 15:20 220 8 5.417.0
2014-Sep-01 14:50 220 10 5.417.0
2014-Sep-01 14:20 210 9 5.417.0
2014-Sep-01 13:50 220 10 5.417.0
2014-Sep-01 13:20 230 11 5.417.0
2014-Sep-01 12:50 230 11 16.0
2014-Sep-01 12:20 230 11 16.0
2014-Sep-01 11:50 220 14 16.0
2014-Sep-01 11:20 220 13 16.0
2014-Sep-01 10:50 210 15 5.416.0
2014-Sep-01 10:20 220 14 5.416.0
2014-Sep-01 09:50 210 13 5.415.0
2014-Sep-01 09:20 220 10 5.415.0
2014-Sep-01 08:50 190 7 5.415.0
2014-Sep-01 08:20 190 9 14.0
2014-Sep-01 07:50 210 9 14.0
2014-Sep-01 07:20 190 10 13.0
2014-Sep-01 06:50 210 8 12.0
2014-Sep-01 06:20 210 5 11.0
2014-Sep-01 05:50 220 5 10.0
2014-Sep-01 05:20 220 5 9.0
2014-Sep-01 04:50 220 7 8.0
2014-Sep-01 04:20 220 7 8.0
2014-Sep-01 03:50 220 9 7.0
2014-Sep-01 03:20 240 5 7.0
2014-Sep-01 02:50 240 2 7.0
2014-Sep-01 02:20 210 6 7.0
2014-Sep-01 01:50 210 6 7.0
2014-Sep-01 01:20 210 5 7.0
2014-Sep-01 00:50 220 5 7.0
2014-Sep-01 00:20 210 6 8.0
2014-Aug-31 23:50 220 6 7.0
2014-Aug-31 23:20 230 5 7.0
2014-Aug-31 22:50 230 4 6.0
2014-Aug-31 22:20 250 4 6.0
2014-Aug-31 21:50 240 3 6.0
2014-Aug-31 21:20 240 3 6.0